Location: Hertford
(51.8000°N, 0.0667°W)
Time: 00:44:14
(UTC+00:00)

Meteor 1-22 Rocket - Visible Passes

Search period start: 24 January 2021 00:00
Search period end: 03 February 2021 00:00
Orbit: 788 x 939 km, 81.2° (Epoch: 23 January)

Date Brightness Start Highest point End Pass type
(mag) Time Alt. Az. Time Alt. Az. Time Alt. Az.
24 Jan 5.9 03:36:22 32° NE 03:36:22 32° NE 03:40:03 10° NNE visible
24 Jan 4.9 05:18:41 39° NW 05:18:41 39° NW 05:23:26 10° N visible
24 Jan 6.2 07:02:23 10° NW 07:02:49 10° NW 07:03:15 10° NW visible
25 Jan 6.0 03:28:50 28° NE 03:28:50 28° NE 03:32:02 10° NNE visible
25 Jan 5.1 05:11:09 36° NNW 05:11:09 36° NNW 05:15:25 10° N visible
25 Jan 6.2 06:54:09 10° NW 06:54:47 10° NW 06:55:25 10° NW visible
26 Jan 6.2 03:21:14 25° NE 03:21:14 25° NE 03:24:01 10° NNE visible
26 Jan 5.2 05:03:32 33° NNW 05:03:32 33° NNW 05:07:24 10° N visible
26 Jan 6.2 06:45:58 10° NW 06:46:45 10° NW 06:47:32 10° NW visible
27 Jan 6.4 03:13:34 23° NE 03:13:34 23° NE 03:15:59 10° NNE visible
27 Jan 5.4 04:55:53 31° NNW 04:55:53 31° NNW 04:59:23 10° N visible
27 Jan 6.2 06:38:11 10° NW 06:38:42 10° NW 06:39:37 10° NW visible
28 Jan 6.5 03:05:52 21° NE 03:05:52 21° NE 03:07:58 10° NNE visible
28 Jan 5.6 04:48:10 28° NNW 04:48:10 28° NNW 04:51:22 10° N visible
28 Jan 6.2 06:30:28 10° NW 06:30:40 10° NW 06:31:41 10° NW visible
29 Jan 6.6 02:58:07 19° NNE 02:58:07 19° NNE 02:59:57 10° NNE visible
29 Jan 5.7 04:40:26 27° NNW 04:40:26 27° NNW 04:43:21 10° N visible
29 Jan 6.3 06:22:44 10° NW 06:22:44 10° NW 06:23:44 10° NNW visible
30 Jan 6.7 02:50:21 18° NNE 02:50:21 18° NNE 02:51:56 10° NNE visible
30 Jan 5.8 04:32:39 25° NNW 04:32:39 25° NNW 04:35:21 10° N visible
30 Jan 6.3 06:14:57 10° NW 06:14:57 10° NW 06:15:46 10° NNW visible
31 Jan 6.8 02:42:33 17° NNE 02:42:33 17° NNE 02:43:55 10° NNE visible
31 Jan 5.9 04:24:51 23° N 04:24:51 23° N 04:27:19 10° N visible
31 Jan 6.3 06:07:09 10° NW 06:07:09 10° NW 06:07:49 10° NNW visible
01 Feb 6.8 02:34:44 16° NNE 02:34:44 16° NNE 02:35:54 10° NNE visible
01 Feb 6.0 04:17:02 22° N 04:17:02 22° N 04:19:18 10° N visible
01 Feb 6.4 05:59:19 10° NW 05:59:19 10° NW 05:59:50 10° NNW visible
02 Feb 6.9 02:26:53 15° NNE 02:26:53 15° NNE 02:27:53 10° NNE visible
02 Feb 6.1 04:09:11 21° N 04:09:11 21° N 04:11:17 10° N visible
02 Feb 6.4 05:51:29 10° NW 05:51:29 10° NW 05:51:52 10° NNW visible
